Weather History for Palm Springs, CA

Change the Weather History Date:

Monday, February 25, 2013

  Actual Average Record
Temperature  
Mean Temperature 56 °F 62 °F  
Max Temperature 69 °F 75 °F 95 °F (1986)
Min Temperature 42 °F 50 °F 28 °F (1953)
Degree Days  
Heating Degree Days 9 4  
Month to date heating degree days 149 141  
Since 1 July heating degree days 725 768  
Cooling Degree Days 0 1  
Month to date cooling degree days 11 24  
Year to date cooling degree days 12 32  
Growing Degree Days 6 (Base 50)    
Moisture  
Dew Point 13 °F    
Average Humidity 20    
Maximum Humidity 31    
Minimum Humidity 9    
Precipitation  
Precipitation 0.00 in 0.04 in 0.70 in (1913)
Month to date precipitation 0.32 0.92  
Year to date precipitation 0.93 1.92  
Since 1 July precipitation 2.15 4.72  
Snow  
Snow 0.00 in - - ()
Month to date snowfall 0.0  
Year to date snowfall 0.0  
Since 1 July snowfall 0.0  
Snow Depth 0.00 in    
Sea Level Pressure  
Sea Level Pressure 30.13 in    
Wind  
Wind Speed 6 mph (North)    
Max Wind Speed 13 mph    
Max Gust Speed 15 mph    
Visibility 10 miles    
Events      
T = Trace of Precipitation, MM = Missing Value Source: NWS Daily Summary

Daily Weather History Graph

Daily Weather History Graph

Search for Another Location

Airport:

Trip Planner

Search our weather history database for the weather conditions in past years. The results will help you decide how hot, cold, wet, or windy it might be!

Date:

Astronomy

Feb. 25, 2013 Rise Set
Actual Time 6:18 AM PST 5:39 PM PST
Civil Twilight 5:53 AM PST 6:04 PM PST
Nautical Twilight 5:24 AM PST 6:33 PM PST
Astronomical Twilight 4:56 AM PST 7:02 PM PST
Moon 5:54 PM PST (2/25) 5:53 AM PST (2/25)
Length of Visible Light 12h 10m
Length of Day
11h 20m
Full, 100% of the Moon is Illuminated
Feb 25
Full
Feb 25
Full
Mar 4
Last Quarter
Mar 11
New
Mar 19
First Quarter

Hourly Weather History & Observations

Time (PST) Temp. Windchill Dew Point Humidity Pressure Visibility Wind Dir Wind Speed Gust Speed Precip Events Conditions
12:53 AM 51.1 °F - 7.0 °F 17% 30.20 in 10.0 mi NW 8.1 mph - N/A   Clear
1:53 AM 48.0 °F - 10.0 °F 22% 30.22 in 10.0 mi North 8.1 mph - N/A   Clear
2:53 AM 48.9 °F - 8.1 °F 19% 30.20 in 10.0 mi NW 9.2 mph - N/A   Clear
3:53 AM 45.0 °F 40.6 °F 12.0 °F 26% 30.20 in 10.0 mi NW 8.1 mph - N/A   Clear
4:53 AM 43.0 °F 37.7 °F 14.0 °F 31% 30.22 in 10.0 mi NNW 9.2 mph - N/A   Clear
5:53 AM 46.9 °F - 10.9 °F 23% 30.23 in 10.0 mi NW 5.8 mph - N/A   Clear
6:53 AM 44.1 °F 40.8 °F 15.1 °F 31% 30.23 in 10.0 mi NNW 5.8 mph - N/A   Clear
7:53 AM 51.1 °F - 15.1 °F 24% 30.24 in 10.0 mi NNW 8.1 mph - N/A   Clear
8:53 AM 59.0 °F - 10.9 °F 15% 30.22 in 10.0 mi NNW 4.6 mph - N/A   Clear
10:53 AM 64.0 °F - 10.0 °F 12% 30.18 in 10.0 mi ESE 4.6 mph - N/A   Clear
11:53 AM 66.0 °F - 8.1 °F 10% 30.16 in 10.0 mi Variable 5.8 mph - N/A   Clear
12:53 PM 68.0 °F - 10.0 °F 11% 30.12 in 10.0 mi SE 5.8 mph - N/A   Clear
1:53 PM 68.0 °F - 9.0 °F 10% 30.10 in 10.0 mi East 6.9 mph - N/A   Clear
2:53 PM 68.0 °F - 7.0 °F 9% 30.08 in 10.0 mi Variable 3.5 mph - N/A   Clear
3:53 PM 69.1 °F - 9.0 °F 10% 30.06 in 10.0 mi ESE 5.8 mph - N/A   Clear
4:53 PM 66.9 °F - 9.0 °F 10% 30.03 in 10.0 mi ESE 4.6 mph - N/A   Partly Cloudy
5:53 PM 64.0 °F - 14.0 °F 14% 30.02 in 10.0 mi ESE 4.6 mph - N/A   Scattered Clouds
6:53 PM 60.1 °F - 17.1 °F 19% 30.03 in 10.0 mi East 4.6 mph - N/A   Clear
7:53 PM 59.0 °F - 15.1 °F 18% 30.04 in 10.0 mi North 3.5 mph - N/A   Clear
8:53 PM 55.9 °F - 19.0 °F 24% 30.04 in 10.0 mi Calm Calm - N/A   Partly Cloudy
9:53 PM 54.0 °F - 21.9 °F 29% 30.05 in 10.0 mi WNW 3.5 mph - N/A   Clear
10:53 PM 52.0 °F - 23.0 °F 32% 30.04 in 10.0 mi West 5.8 mph - N/A   Clear
11:53 PM 51.1 °F - 21.9 °F 32% 30.03 in 10.0 mi Calm Calm - N/A   Clear